(2016 LP10) |
Classification: Apollo [NEO] SPK-ID: 3753859 |
[ hide orbit diagram ]
For accurate long-term ephemerides, please instead use our Horizons system.This orbit viewer was implemented using two-body methods, and hence should not be used for determining accurate long-term trajectories (over several years or decades) or planetary encounter circumstances.
Orbital Elements at Epoch 2457548.5 (2016-Jun-09.0) TDB
Reference: JPL 4 (heliocentric ecliptic J2000)
Element | Value | Uncertainty (1-sigma) | Units |
e | .622228404087478 | 0.0014165 | |
a | 2.083278623027174 | 0.0069896 | au |
q | .7870034901514169 | 0.00031045 | au |
i | .6694925940730656 | 0.0011718 | deg |
node | 79.30212768104998 | 0.00084048 | deg |
peri | 245.3235309075902 | 0.0011241 | deg |
M | 345.433057315906 | 0.08439 | deg |
tp | 2457592.941158713464 (2016-Jul-23.44115871) | 0.033801 | TDB |
period | 1098.296154780403 3.01 | 5.5273 0.01513 | d yr |
n | .3277804428551236 | 0.0016496 | deg/d |
Q | 3.379553755902931 | 0.011339 | au |
|
| | Orbit Determination Parameters
Additional Information
|
[ show covariance matrix ]
Physical Parameter Table
Parameter |
Symbol |
Value |
Units |
Sigma |
Reference |
Notes |
absolute magnitude |
H |
29.3 |
|
n/a |
MPO381224 |
|
|
[ show close-approach data ]
|